SCP
0 0 0 0 0 0 0 0 0 0 0 0 0 0 0 0 0 0 0 0 0 0 0 0 0 0 0 0 0 0 0 0 0 0 0 0 0 0 0 0 0 0 0
0 0 0 0 0 0 0 0 0 0 0 0 0 0 0 0 0 0 0 0 0 0 0 0 0 0 0 0 0 0 0 0 0 0 0 0 0 0 0 0 0 0 0
0 0 0 0 0 0 0 0 0 0 0 0 0 0 0 0 0 0 0 0 0 0 0 0 0 0 0 0 0 0 0 0 0 0 0 0 0 0 0 0 0 0 0
0 0 0 0 0 0 0 0 0 0 0 0 0 0 0 0 0 0 0 0 0 0 0 0 0 0 0 0 0 0 0 0 0 0 0 0 0 0 0 0 0 0 0
0 0 0 0 0 0 0 0 0 0 0 0 0 0 0 0 0 0 0 0 0 0 0 0 0 0 0 0 0 0 0 0 0 0 0 0 0 0 0 0 0 0 0
0 0 0 0 0 0 0 0 0 0 0 0 0 0 0 0 0 0 0 0 0 0 0 0 0 0 0 0 0 0 0 0 0 0 0 0 0 0 0 0 0 0 0
0 0 0 0 0 0 0 0 0 0 0 0 0 0 0 0 0 0 0 0 0 0 0 0 0 0 0 0 0 0 0 0 0 0 0 0 0 0 0 0 0 0 0
0 0 0 0 0 0 0 0 0 0 0 0 0 0 0 0 0 0 0 0 0 0 0 0 0 0 0 0 0 0 0 0 0 0 0 0 0 0 0 0 0 0 0
0 0 0 0 0 0 0 0 0 0 0 0 0 0 0 0 0 0 0 0 0 0 0 0 0 0 0 0 0 0 0 0 0 0 0 0 0 0 0 0 0 0 0
0 0 0 0 0 0 0 0 0 0 0 0 0 0 0 0 0 0 0 0 0 0 0 0 0 0 0 0 0 0 0 0 0 -0 -0 0 0 0 0 0 0 0 1
0 0 0 0 0 0 0 0 0 0 0 0 0 0 0 0 0 0 0 0 0 0 0 0 0 0 0 -0 -0 0 -0 0 0 0 0 0 0 0 0 0 0 1 1
0 0 0 0 0 0 0 0 0 0 0 0 0 0 0 0 0 0 0 0 0 0 0 0 0 0 -0 -0 -0 -0 -0 -0 -0 0 0 0 0 1 0 0 0 0 0
0 0 0 0 0 0 0 0 0 0 0 0 0 0 0 0 0 0 0 0 0 0 0 0 0 -0 -0 -0 0 0 -0 -0 0 0 0 0 0 0 0 0 0 0 0
0 0 0 0 0 0 0 0 0 0 0 0 0 0 0 0 0 0 0 0 0 0 0 0 0 0 -0 -0 -0 0 -0 -0 -0 0 0 0 0 0 0 0 0 0 0
0 0 0 0 0 0 0 0 0 0 0 0 0 0 0 0 0 0 0 0 0 0 -0 0 -0 0 -0 -0 -0 -0 -0 -0 -0 -0 0 0 0 0 0 0 0 0 1
0 0 0 0 0 0 0 0 0 0 0 0 0 0 0 0 0 0 0 0 0 0 -0 -0 0 0 -0 -0 -0 -0 0 0 -0 -0 0 0 0 0 0 0 0 0 0
0 0 0 0 0 0 0 0 0 0 0 0 0 0 0 0 0 0 0 0 0 0 -0 -0 -0 0 -0 -0 0 -0 0 0 0 -0 0 0 0 0 0 0 0 0 0
0 0 0 0 0 0 0 0 0 0 0 0 0 0 0 0 0 0 0 0 0 0 0 -0 -0 -0 -0 -0 -0 0 0 0 0 0 0 0 0 0 0 0 0 0 0
0 0 0 0 0 0 0 0 0 0 0 0 0 0 0 0 0 0 0 0 0 0 0 0 -0 -0 0 -0 -0 0 0 0 0 0 0 0 0 0 0 0 0 0 0
0 0 0 0 0 0 0 0 0 0 0 0 0 0 0 0 0 0 0 0 0 0 0 0 0 0 -0 0 -0 0 0 0 0 0 0 0 0 0 0 0 0 0 0
0 0 0 0 0 0 0 0 0 0 0 0 0 0 0 0 0 0 0 0 0 0 0 0 0 0 -0 -0 0 -0 0 0 0 0 0 0 0 0 0 0 0 0 0
0 0 0 0 0 0 0 0 0 0 0 0 0 0 0 0 0 0 0 0 0 0 0 0 0 0 0 0 0 -0 0 0 0 0 0 0 0 0 0 0 0 0 0
0 0 0 0 0 0 0 0 0 0 0 0 0 0 0 0 0 0 0 0 0 0 0 0 0 0 0 0 0 0 0 -0 0 0 0 0 0 0 0 0 0 0 0
0 0 0 0 0 0 0 0 0 0 0 0 0 0 0 0 -0 0 0 0 0 0 0 0 0 0 0 0 0 0 0 -0 -0 -0 0 0 0 0 0 0 0 0 0
0 0 0 0 0 0 0 0 0 0 0 0 0 0 0 0 -0 -0 0 0 0 0 0 0 0 0 0 0 0 0 0 0 0 0 -0 0 0 0 0 0 0 0 0
0 0 0 0 0 0 0 0 0 0 0 0 0 0 0 0 -0 -0 -0 0 0 0 0 0 0 0 0 0 0 0 0 0 0 0 0 -0 -0 0 0 0 0 0 0
Wind_Speed_500mb
29 26 27 35 42 47 47 33 32 34 38 42 35 33 29 28 32 33 36 34 35 33 36 35 35 41 45 46 48 49 53 54 55 52 56 57 57 59 72 66 72 64 55
31 27 27 32 39 49 49 40 40 43 42 46 43 42 39 32 27 29 30 24 24 30 31 40 45 45 46 49 53 52 54 57 61 59 57 60 61 61 55 63 66 76 63
32 29 27 29 37 44 46 46 40 36 40 40 42 43 39 39 26 26 23 24 28 34 46 46 51 52 53 63 58 56 58 59 61 64 65 62 63 64 65 63 63 73 77
29 28 27 27 32 39 44 47 55 40 38 41 45 44 43 40 31 30 31 31 38 44 46 56 59 55 63 54 54 56 59 63 68 69 68 70 69 65 69 65 62 69 80
27 27 28 27 30 36 40 49 58 41 40 43 47 47 46 35 30 30 30 44 35 39 47 61 58 64 53 54 53 58 63 66 67 75 73 71 74 70 68 67 66 65 76
25 26 27 29 30 33 37 45 51 51 41 48 52 50 44 29 38 26 44 38 46 48 51 52 62 56 54 48 53 58 63 67 68 69 74 77 74 75 73 74 74 70 85
23 27 29 30 29 30 31 38 47 51 51 61 61 63 52 42 27 42 34 45 38 48 49 52 59 50 51 50 54 53 60 61 66 71 75 77 82 78 74 77 80 79 85
25 27 30 32 31 27 25 31 36 46 51 53 55 50 42 45 66 50 54 47 47 47 48 47 49 38 44 51 53 58 59 61 64 68 71 77 78 80 78 80 81 76 88
24 26 28 33 32 31 31 31 30 34 44 45 47 40 31 36 69 62 60 55 53 45 47 49 54 41 51 56 52 55 50 64 65 64 74 70 74 75 73 76 75 71 90
22 25 28 34 34 35 39 37 32 35 39 42 46 39 35 49 54 43 63 56 46 47 45 46 52 50 42 54 53 56 60 54 52 62 76 77 72 74 74 74 71 68 81
21 23 29 33 34 30 30 32 36 32 37 41 43 45 45 47 44 49 50 69 59 54 46 44 51 58 53 48 60 58 53 39 29 3 23 46 65 61 73 62 56 57 55
20 22 27 31 33 31 26 30 36 29 33 36 40 37 38 41 48 52 61 51 58 64 50 44 51 58 62 56 47 51 53 41 29 19 42 51 36 45 37 45 54 49 60
20 21 25 28 30 30 30 25 30 30 28 32 40 36 35 36 40 45 53 53 55 59 59 40 55 59 62 62 49 65 55 71 21 20 32 27 39 48 41 41 32 39 35
22 23 25 26 28 29 28 25 26 33 21 30 37 35 33 35 38 39 52 42 52 43 55 50 50 52 57 56 52 49 36 57 45 44 34 38 37 42 38 27 37 28 34
22 22 25 26 26 29 28 25 23 29 21 27 36 35 33 32 34 39 40 38 42 46 46 57 55 41 48 51 45 38 42 34 50 59 50 39 44 41 39 34 40 30 24
22 23 25 26 26 28 29 27 22 27 27 25 33 39 35 29 34 41 38 34 35 38 36 50 47 38 36 38 39 37 34 28 40 36 40 44 48 40 37 42 29 30 33
22 24 26 26 26 28 29 28 19 22 27 30 31 41 37 27 27 37 33 40 41 39 42 46 39 32 30 32 36 39 29 27 22 34 32 33 33 30 32 32 26 25 17
23 26 27 26 26 27 28 26 20 22 30 32 31 39 33 29 27 30 34 38 43 35 36 40 37 37 38 36 36 36 29 15 16 17 17 21 15 18 22 20 22 21 21
25 25 27 26 26 25 28 26 27 30 30 27 27 33 31 30 27 25 33 38 39 34 30 35 37 37 41 38 38 29 23 18 12 9 12 14 5 6 11 10 10 9 16
26 26 27 26 27 26 27 29 30 31 28 21 23 28 32 27 19 26 34 37 37 38 34 35 34 34 33 35 31 27 18 15 10 9 7 9 15 6 1 4 8 9 11
26 27 27 26 27 26 26 30 34 32 29 19 21 27 32 25 16 19 28 31 34 35 35 36 35 34 31 33 39 35 26 19 16 18 9 1 7 12 7 4 3 4 5
28 29 28 28 28 26 26 27 30 34 29 26 21 28 33 25 21 16 19 21 24 26 32 36 37 37 29 29 31 29 29 33 18 20 16 11 5 5 8 6 6 8 9
32 31 30 29 29 28 27 27 28 32 28 23 22 27 33 26 18 18 23 22 20 19 20 26 31 28 30 29 27 28 24 26 25 22 19 17 14 10 6 2 18 13 6
36 33 31 30 31 29 28 27 27 30 25 21 22 24 31 25 19 19 25 21 15 18 20 21 26 27 27 27 25 18 22 22 17 20 25 21 22 19 16 11 10 13 10
39 35 33 32 32 30 29 27 27 29 24 20 20 24 26 26 20 21 22 19 15 15 14 16 16 24 30 26 28 20 17 19 16 18 25 17 28 14 14 12 12 14 13
40 38 36 33 32 30 27 24 24 28 25 23 18 21 20 27 23 22 20 18 18 14 8 7 11 15 22 26 31 33 28 23 20 8 21 21 22 18 3 9 12 11 13
Wind_Direction_500mb
15 16 12 358 356 356 354 349 351 353 356 358 2 3 351 322 321 307 300 297 303 316 312 313 307 306 303 300 294 289 284 281 275 272 266 261 262 260 253 253 246 234 237
15 16 12 358 356 357 356 355 356 356 351 351 354 351 356 357 350 3 339 321 318 319 316 314 311 308 304 300 294 287 281 278 275 272 262 263 260 257 251 250 253 233 238
13 9 6 356 359 357 4 5 354 349 349 344 339 340 343 353 348 348 333 317 320 314 310 313 313 311 303 300 293 285 279 278 273 268 265 261 260 258 251 251 250 241 233
10 10 7 1 358 355 1 5 1 341 341 339 333 337 337 339 336 336 346 336 327 314 316 314 316 311 307 303 294 286 282 277 271 270 262 257 254 256 252 250 246 246 234
10 7 9 6 2 2 359 1 2 358 347 341 339 336 340 344 347 332 341 337 323 321 317 317 318 314 308 306 297 289 284 278 270 266 263 258 251 255 251 252 250 245 233
7 7 9 10 9 7 360 1 357 4 358 352 343 343 352 356 347 333 330 337 322 329 325 327 326 319 312 308 304 292 287 279 273 265 261 257 254 248 248 250 250 249 232
1 8 7 8 2 359 357 354 351 357 2 2 353 356 357 356 355 332 339 339 338 334 333 335 335 329 327 313 307 297 290 279 271 265 258 254 250 247 247 248 249 246 229
359 2 2 0 355 353 349 348 350 352 354 357 353 349 347 351 348 351 344 342 341 340 340 342 337 330 335 330 318 301 293 281 270 264 257 252 248 243 244 247 249 247 222
354 353 353 353 355 349 354 1 357 356 351 352 354 354 350 332 334 340 343 336 340 346 347 350 348 325 325 324 323 328 306 283 278 263 251 250 243 240 241 244 243 241 222
344 346 347 346 347 355 357 352 5 1 355 350 352 350 339 336 339 330 341 343 346 352 354 353 349 338 320 332 324 327 324 312 274 265 249 239 236 237 237 238 246 238 219
331 336 339 339 339 346 2 352 351 356 1 349 348 342 337 342 342 337 320 339 343 348 353 356 355 354 349 326 337 333 337 303 318 21 107 221 223 225 254 233 223 211 210
322 328 329 333 335 339 346 1 355 345 345 344 340 339 340 345 339 340 336 332 334 342 347 0 3 360 357 351 342 349 4 325 337 104 88 81 87 135 120 129 147 148 186
316 324 325 332 333 337 337 335 346 346 340 334 340 338 342 339 339 338 333 329 329 339 351 10 6 1 1 358 358 350 15 0 51 98 109 93 67 77 97 95 119 124 141
311 323 322 328 331 335 334 331 341 337 330 330 337 335 341 340 346 336 333 334 332 335 340 352 352 1 0 1 4 10 6 24 48 70 81 75 73 86 80 90 112 130 142
305 316 318 323 331 334 333 331 332 335 326 329 337 335 337 341 339 339 338 347 343 329 333 346 349 4 358 0 8 6 8 10 35 50 63 59 72 66 73 75 84 90 109
303 313 314 320 328 329 330 328 319 329 325 331 338 337 334 330 338 337 340 345 346 340 328 342 350 351 358 357 5 11 25 25 53 50 63 60 59 64 54 70 82 89 90
299 306 307 313 321 325 328 325 320 331 335 330 331 337 332 329 338 331 349 350 343 339 334 331 341 6 0 1 356 354 9 23 35 49 58 70 64 69 64 65 79 88 112
294 299 304 309 316 323 324 323 313 323 326 319 326 332 330 335 336 338 348 350 342 344 338 333 334 348 342 342 345 345 345 343 3 17 60 97 82 65 80 83 62 91 101
287 292 298 303 311 318 321 318 319 329 324 309 322 331 332 328 335 338 342 345 345 346 341 331 334 340 337 330 328 335 346 339 353 357 35 62 81 77 75 85 103 83 89
282 287 293 299 306 314 318 316 317 321 326 310 321 331 334 326 341 332 336 336 337 345 347 348 342 347 347 355 354 6 11 5 11 5 358 49 115 152 63 138 130 131 123
277 282 287 292 299 308 313 313 314 322 331 323 322 332 331 326 319 323 331 334 337 339 345 345 346 340 350 352 359 2 10 12 41 37 29 31 143 126 165 185 197 178 168
275 278 284 288 295 304 308 308 309 316 327 322 327 330 330 331 316 327 334 329 328 339 340 336 338 334 337 333 352 352 2 17 18 17 31 51 63 205 150 135 275 241 224
272 278 282 287 294 299 303 304 304 308 318 308 315 328 328 333 335 335 334 326 314 327 332 322 354 359 1 355 349 354 7 6 1 1 14 31 44 64 158 64 43 32 217
270 276 282 285 290 296 298 300 298 301 309 294 302 314 323 332 339 335 334 335 329 346 347 351 356 5 359 354 353 5 7 7 12 30 19 26 36 74 101 113 47 13 47
268 276 281 285 289 294 295 294 292 297 303 292 299 302 314 328 332 336 338 343 338 336 337 356 16 15 17 17 16 25 17 28 45 28 22 33 33 67 74 53 38 360 344
268 272 278 283 285 291 292 294 289 294 300 303 299 286 292 314 322 324 329 338 343 345 3 3 9 14 6 6 9 16 11 15 20 36 14 23 19 37 55 16 354 355 9
Wind_Speed_850mb
29 26 27 35 42 47 47 33 32 34 38 42 35 33 29 28 32 33 36 34 35 33 36 35 35 41 45 46 48 49 53 54 55 52 56 57 57 59 72 66 72 64 55
31 27 27 32 39 49 49 40 40 43 42 46 43 42 39 32 27 29 30 24 24 30 31 40 45 45 46 49 53 52 54 57 61 59 57 60 61 61 55 63 66 76 63
32 29 27 29 37 44 46 46 40 36 40 40 42 43 39 39 26 26 23 24 28 34 46 46 51 52 53 63 58 56 58 59 61 64 65 62 63 64 65 63 63 73 77
29 28 27 27 32 39 44 47 55 40 38 41 45 44 43 40 31 30 31 31 38 44 46 56 59 55 63 54 54 56 59 63 68 69 68 70 69 65 69 65 62 69 80
27 27 28 27 30 36 40 49 58 41 40 43 47 47 46 35 30 30 30 44 35 39 47 61 58 64 53 54 53 58 63 66 67 75 73 71 74 70 68 67 66 65 76
25 26 27 29 30 33 37 45 51 51 41 48 52 50 44 29 38 26 44 38 46 48 51 52 62 56 54 48 53 58 63 67 68 69 74 77 74 75 73 74 74 70 85
23 27 29 30 29 30 31 38 47 51 51 61 61 63 52 42 27 42 34 45 38 48 49 52 59 50 51 50 54 53 60 61 66 71 75 77 82 78 74 77 80 79 85
25 27 30 32 31 27 25 31 36 46 51 53 55 50 42 45 66 50 54 47 47 47 48 47 49 38 44 51 53 58 59 61 64 68 71 77 78 80 78 80 81 76 88
24 26 28 33 32 31 31 31 30 34 44 45 47 40 31 36 69 62 60 55 53 45 47 49 54 41 51 56 52 55 50 64 65 64 74 70 74 75 73 76 75 71 90
22 25 28 34 34 35 39 37 32 35 39 42 46 39 35 49 54 43 63 56 46 47 45 46 52 50 42 54 53 56 60 54 52 62 76 77 72 74 74 74 71 68 81
21 23 29 33 34 30 30 32 36 32 37 41 43 45 45 47 44 49 50 69 59 54 46 44 51 58 53 48 60 58 53 39 29 3 23 46 65 61 73 62 56 57 55
20 22 27 31 33 31 26 30 36 29 33 36 40 37 38 41 48 52 61 51 58 64 50 44 51 58 62 56 47 51 53 41 29 19 42 51 36 45 37 45 54 49 60
20 21 25 28 30 30 30 25 30 30 28 32 40 36 35 36 40 45 53 53 55 59 59 40 55 59 62 62 49 65 55 71 21 20 32 27 39 48 41 41 32 39 35
22 23 25 26 28 29 28 25 26 33 21 30 37 35 33 35 38 39 52 42 52 43 55 50 50 52 57 56 52 49 36 57 45 44 34 38 37 42 38 27 37 28 34
22 22 25 26 26 29 28 25 23 29 21 27 36 35 33 32 34 39 40 38 42 46 46 57 55 41 48 51 45 38 42 34 50 59 50 39 44 41 39 34 40 30 24
22 23 25 26 26 28 29 27 22 27 27 25 33 39 35 29 34 41 38 34 35 38 36 50 47 38 36 38 39 37 34 28 40 36 40 44 48 40 37 42 29 30 33
22 24 26 26 26 28 29 28 19 22 27 30 31 41 37 27 27 37 33 40 41 39 42 46 39 32 30 32 36 39 29 27 22 34 32 33 33 30 32 32 26 25 17
23 26 27 26 26 27 28 26 20 22 30 32 31 39 33 29 27 30 34 38 43 35 36 40 37 37 38 36 36 36 29 15 16 17 17 21 15 18 22 20 22 21 21
25 25 27 26 26 25 28 26 27 30 30 27 27 33 31 30 27 25 33 38 39 34 30 35 37 37 41 38 38 29 23 18 12 9 12 14 5 6 11 10 10 9 16
26 26 27 26 27 26 27 29 30 31 28 21 23 28 32 27 19 26 34 37 37 38 34 35 34 34 33 35 31 27 18 15 10 9 7 9 15 6 1 4 8 9 11
26 27 27 26 27 26 26 30 34 32 29 19 21 27 32 25 16 19 28 31 34 35 35 36 35 34 31 33 39 35 26 19 16 18 9 1 7 12 7 4 3 4 5
28 29 28 28 28 26 26 27 30 34 29 26 21 28 33 25 21 16 19 21 24 26 32 36 37 37 29 29 31 29 29 33 18 20 16 11 5 5 8 6 6 8 9
32 31 30 29 29 28 27 27 28 32 28 23 22 27 33 26 18 18 23 22 20 19 20 26 31 28 30 29 27 28 24 26 25 22 19 17 14 10 6 2 18 13 6
36 33 31 30 31 29 28 27 27 30 25 21 22 24 31 25 19 19 25 21 15 18 20 21 26 27 27 27 25 18 22 22 17 20 25 21 22 19 16 11 10 13 10
39 35 33 32 32 30 29 27 27 29 24 20 20 24 26 26 20 21 22 19 15 15 14 16 16 24 30 26 28 20 17 19 16 18 25 17 28 14 14 12 12 14 13
40 38 36 33 32 30 27 24 24 28 25 23 18 21 20 27 23 22 20 18 18 14 8 7 11 15 22 26 31 33 28 23 20 8 21 21 22 18 3 9 12 11 13
Wind_Direction_850mb
15 16 12 358 356 356 354 349 351 353 356 358 2 3 351 322 321 307 300 297 303 316 312 313 307 306 303 300 294 289 284 281 275 272 266 261 262 260 253 253 246 234 237
15 16 12 358 356 357 356 355 356 356 351 351 354 351 356 357 350 3 339 321 318 319 316 314 311 308 304 300 294 287 281 278 275 272 262 263 260 257 251 250 253 233 238
13 9 6 356 359 357 4 5 354 349 349 344 339 340 343 353 348 348 333 317 320 314 310 313 313 311 303 300 293 285 279 278 273 268 265 261 260 258 251 251 250 241 233
10 10 7 1 358 355 1 5 1 341 341 339 333 337 337 339 336 336 346 336 327 314 316 314 316 311 307 303 294 286 282 277 271 270 262 257 254 256 252 250 246 246 234
10 7 9 6 2 2 359 1 2 358 347 341 339 336 340 344 347 332 341 337 323 321 317 317 318 314 308 306 297 289 284 278 270 266 263 258 251 255 251 252 250 245 233
7 7 9 10 9 7 360 1 357 4 358 352 343 343 352 356 347 333 330 337 322 329 325 327 326 319 312 308 304 292 287 279 273 265 261 257 254 248 248 250 250 249 232
1 8 7 8 2 359 357 354 351 357 2 2 353 356 357 356 355 332 339 339 338 334 333 335 335 329 327 313 307 297 290 279 271 265 258 254 250 247 247 248 249 246 229
359 2 2 0 355 353 349 348 350 352 354 357 353 349 347 351 348 351 344 342 341 340 340 342 337 330 335 330 318 301 293 281 270 264 257 252 248 243 244 247 249 247 222
354 353 353 353 355 349 354 1 357 356 351 352 354 354 350 332 334 340 343 336 340 346 347 350 348 325 325 324 323 328 306 283 278 263 251 250 243 240 241 244 243 241 222
344 346 347 346 347 355 357 352 5 1 355 350 352 350 339 336 339 330 341 343 346 352 354 353 349 338 320 332 324 327 324 312 274 265 249 239 236 237 237 238 246 238 219
331 336 339 339 339 346 2 352 351 356 1 349 348 342 337 342 342 337 320 339 343 348 353 356 355 354 349 326 337 333 337 303 318 21 107 221 223 225 254 233 223 211 210
322 328 329 333 335 339 346 1 355 345 345 344 340 339 340 345 339 340 336 332 334 342 347 0 3 360 357 351 342 349 4 325 337 104 88 81 87 135 120 129 147 148 186
316 324 325 332 333 337 337 335 346 346 340 334 340 338 342 339 339 338 333 329 329 339 351 10 6 1 1 358 358 350 15 0 51 98 109 93 67 77 97 95 119 124 141
311 323 322 328 331 335 334 331 341 337 330 330 337 335 341 340 346 336 333 334 332 335 340 352 352 1 0 1 4 10 6 24 48 70 81 75 73 86 80 90 112 130 142
305 316 318 323 331 334 333 331 332 335 326 329 337 335 337 341 339 339 338 347 343 329 333 346 349 4 358 0 8 6 8 10 35 50 63 59 72 66 73 75 84 90 109
303 313 314 320 328 329 330 328 319 329 325 331 338 337 334 330 338 337 340 345 346 340 328 342 350 351 358 357 5 11 25 25 53 50 63 60 59 64 54 70 82 89 90
299 306 307 313 321 325 328 325 320 331 335 330 331 337 332 329 338 331 349 350 343 339 334 331 341 6 0 1 356 354 9 23 35 49 58 70 64 69 64 65 79 88 112
294 299 304 309 316 323 324 323 313 323 326 319 326 332 330 335 336 338 348 350 342 344 338 333 334 348 342 342 345 345 345 343 3 17 60 97 82 65 80 83 62 91 101
287 292 298 303 311 318 321 318 319 329 324 309 322 331 332 328 335 338 342 345 345 346 341 331 334 340 337 330 328 335 346 339 353 357 35 62 81 77 75 85 103 83 89
282 287 293 299 306 314 318 316 317 321 326 310 321 331 334 326 341 332 336 336 337 345 347 348 342 347 347 355 354 6 11 5 11 5 358 49 115 152 63 138 130 131 123
277 282 287 292 299 308 313 313 314 322 331 323 322 332 331 326 319 323 331 334 337 339 345 345 346 340 350 352 359 2 10 12 41 37 29 31 143 126 165 185 197 178 168
275 278 284 288 295 304 308 308 309 316 327 322 327 330 330 331 316 327 334 329 328 339 340 336 338 334 337 333 352 352 2 17 18 17 31 51 63 205 150 135 275 241 224
272 278 282 287 294 299 303 304 304 308 318 308 315 328 328 333 335 335 334 326 314 327 332 322 354 359 1 355 349 354 7 6 1 1 14 31 44 64 158 64 43 32 217
270 276 282 285 290 296 298 300 298 301 309 294 302 314 323 332 339 335 334 335 329 346 347 351 356 5 359 354 353 5 7 7 12 30 19 26 36 74 101 113 47 13 47
268 276 281 285 289 294 295 294 292 297 303 292 299 302 314 328 332 336 338 343 338 336 337 356 16 15 17 17 16 25 17 28 45 28 22 33 33 67 74 53 38 360 344
268 272 278 283 285 291 292 294 289 294 300 303 299 286 292 314 322 324 329 338 343 345 3 3 9 14 6 6 9 16 11 15 20 36 14 23 19 37 55 16 354 355 9